Weather in Stepanovo

Russia / Udmurt Republic     57°01′21″N   54°21′59″E
temp.,
°C
wind,
m/s
gust,
m/s
humid.,
%
clouds,
%
prec.,
mm/h
press.,
hPa
HPBL,
m
15 may, sat
sat1501:00+17s2106524 0.0 1019173
04:00+16ssw396675 0.0 1019204
07:00+19sw366264 0.0 1020234
10:00+26sw354929 0.0 1020785
13:00+29sw583692 0.0 10191539
16:00+29sw5930100 0.0 10191258
19:00+25sw41139100 0.0 1018601
22:00+20ssw385770 0.0 1018125
16 may, sun
sun1601:00+17ssw396497 0.0 1018166
04:00+16ssw256628 0.0 101988
07:00+21ssw384940 0.0 1019254
10:00+27sw58304 0.0 1018962
13:00+30sw69235 0.0 10182453
16:00+30sw692337 0.0 10172899
19:00+27sw41034100 0.0 1016574
22:00+21ssw31052100 0.0 1017200
17 may, mon
mon1701:00+18s2561100 0.0 101783
04:00+16sw226567 0.0 101721
07:00+21sw245442 0.0 1018233
10:00+25wsw364299 0.0 1018854
13:00+28wsw593186 0.0 10182108
16:00+29w582577 0.0 10172578
19:00+25w393615 0.1 1017347
22:00+18nw11605 0.2 101811
18 may, tue
tue1801:00+17e007339 0.0 101811
04:00+16s1178100 0.2 101811
07:00+20sse116446 0.4 1019153
10:00+27sw124320 0.4 1018869
13:00+29w47326 0.0 10172690
16:00+30w45205 0.0 10163463
19:00+25nw1139100 0.0 101613
22:00+20ne225489 0.0 101712
19 may, wed
wed1901:00+18ne226426 0.0 101741
04:00+16e256817 0.0 101875
07:00+20e37575 0.0 1018285
10:00+26ese44425 0.0 1018907
13:00+28ese43354 0.0 10182256
16:00+29ese443210 0.0 10172883
19:00+26ese37442 0.0 1016369
22:00+21se412544 0.0 1016324